CW1509 Weather Reports


Display with metric or nautical units.
time (UTC)temp
F
wind
direction
speed
MPH
gust
MPH
rain 1hr
in
rain 24hr
in
rain mn
in
humidity
%
barometer
mb
20260502194950 52 360 0.0 9.0 0.00 0.00 0.00 40 1018.4
20260502194430 52 360 4.0 9.0 0.00 0.00 0.00 39 1018.5
20260502193929 53 360 2.0 6.0 0.00 0.00 0.00 42 1018.6
20260502193428 52 360 2.0 6.0 0.00 0.00 0.00 39 1018.6
20260502192928 52 360 2.0 6.0 0.00 0.00 0.00 40 1018.6
20260502192428 52 360 2.0 6.0 0.00 0.00 0.00 42 1018.7
20260502191928 52 360 3.0 5.0 0.00 0.00 0.00 41 1018.8
20260502191428 51 360 2.0 6.0 0.00 0.00 0.00 39 1018.8
20260502190946 51 360 2.0 8.0 0.00 0.00 0.00 42 1018.8
20260502190444 52 360 2.0 8.0 0.00 0.00 0.00 42 1018.8
20260502185921 52 360 3.0 6.0 0.00 0.00 0.00 40 1018.9
20260502185422 51 360 2.0 6.0 0.00 0.00 0.00 41 1018.9
20260502184921 51 360 3.0 6.0 0.00 0.00 0.00 41 1018.9
20260502184419 51 360 2.0 10.0 0.00 0.00 0.00 42 1018.9
20260502183920 51 360 4.0 11.0 0.00 0.00 0.00 40 1019.0
20260502183436 51 360 6.0 11.0 0.00 0.00 0.00 38 1018.9
20260502182429 51 360 2.0 8.0 0.00 0.00 0.00 41 1019.1
20260502181925 51 360 3.0 8.0 0.00 0.00 0.00 41 1019.0
20260502181427 50 360 2.0 11.0 0.00 0.00 0.00 41 1019.1
20260502180923 50 360 5.0 11.0 0.00 0.00 0.00 40 1019.1
20260502180421 50 360 3.0 8.0 0.00 0.00 0.00 42 1019.1
20260502170418 49 360 3.0 6.0 0.00 0.00 0.00 43 1019.4
20260502163930 49 360 3.0 9.0 0.00 0.00 0.00 42 1019.5
20260502163427 49 360 2.0 5.0 0.00 0.00 0.00 44 1019.5
20260502162925 48 360 3.0 10.0 0.00 0.00 0.00 44 1019.5
20260502162420 48 360 4.0 10.0 0.00 0.00 0.00 42 1019.6
20260502161920 48 360 3.0 5.0 0.00 0.00 0.00 44 1019.6
20260502161418 47 360 3.0 5.0 0.00 0.00 0.00 42 1019.6
20260502160918 48 360 2.0 6.0 0.00 0.00 0.00 45 1019.6
20260502160436 47 360 3.0 9.0 0.00 0.00 0.00 47 1019.6
20260502151917 45 360 2.0 6.0 0.00 0.00 0.00 50 1019.6
20260502151433 45 360 2.0 6.0 0.00 0.00 0.00 51 1019.6
20260502150929 45 360 1.0 5.0 0.00 0.00 0.00 52 1019.6
20260502150447 45 360 1.0 5.0 0.00 0.00 0.00 53 1019.6
20260502130418 42 360 0.0 3.0 0.00 0.00 0.00 77 1019.4
20260502123416 37 360 0.0 1.0 0.00 0.00 0.00 92 1019.6
20260502122916 36 360 0.0 1.0 0.00 0.00 0.00 93 1019.5
20260502122414 35 360 0.0 0.0 0.00 0.00 0.00 93 1019.5
20260502121914 33 360 0.0 0.0 0.00 0.00 0.00 93 1019.6
20260502121414 32 360 0.0 0.0 0.00 0.00 0.00 93 1019.5
20260502120913 31 360 0.0 0.0 0.00 0.00 0.00 92 1019.5
20260502120433 31 360 0.0 0.0 0.00 0.00 0.00 92 1019.4
20260502115451 30 360 0.0 0.0 0.00 0.00 0.00 91 1019.2
20260502114928 30 360 0.0 0.0 0.00 0.00 0.00 91 1019.2
20260502113920 29 360 0.0 0.0 0.00 0.00 0.00 90 1019.1
20260502113418 29 360 0.0 0.0 0.00 0.00 0.00 90 1019.1
20260502112915 29 360 0.0 0.0 0.00 0.00 0.00 89 1019.1
20260502112433 29 360 0.0 0.0 0.00 0.00 0.00 89 1019.0
20260502111914 29 360 0.0 0.0 0.00 0.00 0.00 89 1018.9
20260502111414 29 360 0.0 0.0 0.00 0.00 0.00 89 1019.0
20260502110914 29 360 0.0 0.0 0.00 0.00 0.00 89 1018.9
20260502110414 29 360 0.0 0.0 0.00 0.00 0.00 89 1018.8
20260502105933 29 360 0.0 0.0 0.00 0.00 0.00 89 1018.7
20260502105430 29 360 0.0 0.0 0.00 0.00 0.00 89 1018.7
20260502104925 29 360 0.0 0.0 0.00 0.00 0.00 89 1018.9
20260502104422 29 360 0.0 0.0 0.00 0.00 0.00 89 1018.8
20260502103929 30 360 0.0 0.0 0.00 0.00 0.00 89 1018.8
20260502103442 30 360 0.0 0.0 0.00 0.00 0.00 89 1018.7
20260502102938 30 360 0.0 0.0 0.00 0.00 0.00 88 1018.7
20260502102457 30 360 0.0 0.0 0.00 0.00 0.00 88 1018.7
20260502101933 30 360 0.0 0.0 0.00 0.00 0.00 88 1018.8
20260502101430 30 360 0.0 0.0 0.00 0.00 0.00 88 1018.9
20260502100929 30 360 0.0 0.0 0.00 0.00 0.00 88 1018.8
20260502100444 30 360 0.0 0.0 0.00 0.00 0.00 88 1018.8
20260502091421 30 360 0.0 0.0 0.00 0.00 0.00 87 1018.7
20260502090938 30 360 0.0 0.0 0.00 0.00 0.00 87 1018.7
20260502090435 30 360 0.0 0.0 0.00 0.01 0.00 87 1018.6
20260502071441 31 360 0.0 0.0 0.00 0.02 0.00 86 1018.5
20260502070917 31 360 0.0 0.0 0.00 0.02 0.00 86 1018.4
20260502070436 31 360 0.0 0.0 0.00 0.07 0.00 86 1018.4
20260502065932 31 360 0.0 2.0 0.00 0.07 0.00 85 1018.5
20260502065429 31 360 0.0 2.0 0.00 0.07 0.00 85 1018.7
20260502064924 31 360 0.0 1.0 0.00 0.07 0.00 84 1018.6
20260502064423 31 360 0.0 0.0 0.00 0.07 0.00 84 1018.6
20260502063940 31 360 0.0 0.0 0.00 0.07 0.00 84 1018.5
20260502063436 31 360 0.0 0.0 0.00 0.07 0.00 84 1018.4
20260502062934 31 360 0.0 0.0 0.00 0.07 0.00 84 1018.4
20260502062450 31 360 0.0 0.0 0.00 0.07 0.00 84 1018.5
20260502061925 31 360 0.0 0.0 0.00 0.07 0.00 83 1018.5
20260502061421 32 360 0.0 0.0 0.00 0.07 0.00 83 1018.5
20260502060918 32 360 0.0 0.0 0.00 0.07 0.00 83 1018.6
20260502060436 32 360 0.0 0.0 0.00 0.11 0.00 81 1018.7
20260502055953 33 360 0.0 0.0 0.00 0.11 0.00 80 1018.7
20260502055428 33 360 0.0 0.0 0.00 0.11 0.00 80 1018.6
20260502054923 33 360 0.0 0.0 0.00 0.11 0.00 79 1018.6
20260502054419 33 360 0.0 0.0 0.00 0.11 0.00 79 1018.7
20260502053935 33 360 0.0 0.0 0.00 0.11 0.00 78 1018.7
20260502053431 33 360 0.0 0.0 0.00 0.11 0.00 78 1018.8
20260502052927 34 360 0.0 0.0 0.00 0.11 0.00 78 1019.0
20260502052425 34 360 0.0 0.0 0.00 0.11 0.00 78 1019.0
20260502051921 34 360 0.0 0.0 0.00 0.11 0.00 78 1018.9
20260502051420 34 360 0.0 0.0 0.00 0.11 0.00 77 1018.9
20260502050916 34 360 0.0 0.0 0.00 0.11 0.00 77 1018.8
20260502050415 34 360 0.0 0.0 0.00 0.20 0.00 77 1018.8
20260502045953 34 360 0.0 0.0 0.00 0.20 0.00 77 1018.9
20260502045432 34 360 0.0 0.0 0.00 0.20 0.00 77 1018.9
20260502044932 35 360 0.0 0.0 0.00 0.20 0.00 77 1018.9
20260502044432 35 360 0.0 0.0 0.00 0.20 0.00 76 1018.8
20260502043930 35 360 0.0 0.0 0.00 0.20 0.00 76 1018.9
20260502043449 35 360 0.0 0.0 0.00 0.20 0.00 76 1018.9
20260502042948 35 360 0.0 0.0 0.00 0.20 0.00 75 1018.9
20260502042427 35 360 0.0 0.0 0.00 0.20 0.00 74 1019.0
20260502041927 36 360 0.0 0.0 0.00 0.20 0.00 74 1019.0
20260502041427 36 360 0.0 0.0 0.00 0.20 0.00 74 1018.9
20260502040927 36 360 0.0 0.0 0.00 0.20 0.00 73 1018.9
20260502040427 36 360 0.0 0.0 0.00 0.27 0.20 73 1018.9
20260502035947 36 360 0.0 0.0 0.00 0.27 0.20 72 1018.9
20260502035426 36 360 0.0 0.0 0.00 0.27 0.20 72 1018.9
20260502034945 37 360 0.0 0.0 0.00 0.27 0.20 72 1018.9
20260502034445 37 360 0.0 0.0 0.00 0.27 0.20 72 1018.9
20260502033923 37 360 0.0 0.0 0.00 0.27 0.20 71 1018.9
20260502033422 37 360 0.0 0.0 0.00 0.27 0.20 71 1018.8
20260502032924 37 360 0.0 0.0 0.00 0.27 0.20 71 1018.7
20260502032423 37 360 0.0 0.0 0.00 0.27 0.20 71 1018.8
20260502031915 38 360 0.0 0.0 0.00 0.27 0.20 70 1018.6
20260502031416 38 360 0.0 0.0 0.00 0.27 0.20 69 1018.7
20260502030917 38 360 0.0 0.0 0.00 0.27 0.20 68 1018.6
20260502030418 38 360 0.0 0.0 0.00 0.33 0.20 67 1018.5
20260502025919 38 360 0.0 0.0 0.00 0.33 0.20 67 1018.5
20260502025419 38 360 0.0 1.0 0.00 0.33 0.20 67 1018.5
20260502024937 39 360 0.0 1.0 0.00 0.33 0.20 66 1018.5
20260502024415 39 360 0.0 0.0 0.00 0.33 0.20 66 1018.5
20260502023915 39 360 0.0 3.0 0.00 0.33 0.20 66 1018.4
20260502023414 39 360 0.0 3.0 0.00 0.33 0.20 65 1018.4
20260502022915 39 360 0.0 2.0 0.00 0.33 0.20 65 1018.4
20260502022414 39 360 0.0 2.0 0.00 0.33 0.20 64 1018.4
20260502021933 40 360 0.0 2.0 0.00 0.33 0.20 64 1018.4
20260502021434 40 360 0.0 0.0 0.00 0.33 0.20 63 1018.4
20260502020954 40 360 0.0 2.0 0.00 0.33 0.20 63 1018.2
20260502020433 40 360 0.0 4.0 0.00 0.33 0.20 62 1018.2
20260502015933 40 360 1.0 4.0 0.00 0.33 0.20 61 1018.2
20260502015432 40 360 1.0 3.0 0.00 0.33 0.20 61 1018.1
20260502014930 40 360 1.0 3.0 0.00 0.33 0.20 60 1018.2
20260502014445 41 360 1.0 2.0 0.00 0.33 0.20 60 1018.1
20260502013921 41 360 0.0 0.0 0.00 0.33 0.20 60 1018.0
20260502013442 41 360 0.0 2.0 0.00 0.33 0.20 58 1018.0
20260502012937 41 360 0.0 0.0 0.00 0.33 0.20 58 1018.0
20260502012454 41 360 0.0 0.0 0.00 0.33 0.20 57 1017.9
20260502011929 41 360 0.0 0.0 0.00 0.33 0.20 56 1017.7
20260502011426 41 360 0.0 0.0 0.00 0.33 0.20 56 1017.7
20260502010924 41 360 0.0 2.0 0.00 0.33 0.20 54 1017.5
20260502010423 41 360 0.0 4.0 0.00 0.34 0.20 54 1017.3
20260502005924 42 360 1.0 4.0 0.00 0.34 0.20 54 1017.3
20260502005444 42 360 1.0 3.0 0.00 0.34 0.20 54 1017.4
20260502004922 42 360 1.0 3.0 0.00 0.34 0.20 53 1017.5
20260502004422 42 360 1.0 4.0 0.00 0.34 0.20 53 1017.5
20260502003923 42 360 1.0 4.0 0.00 0.34 0.20 53 1017.5
20260502003425 43 360 1.0 5.0 0.00 0.34 0.20 54 1017.5
20260502002922 43 360 2.0 5.0 0.00 0.34 0.20 53 1017.5
20260502002423 43 360 2.0 5.0 0.00 0.34 0.20 54 1017.4
20260502001942 43 360 3.0 5.0 0.00 0.34 0.20 54 1017.4
20260502001418 44 360 2.0 5.0 0.00 0.34 0.20 54 1017.3
20260502000918 44 360 3.0 4.0 0.00 0.34 0.20 54 1017.3
20260502000419 44 360 1.0 4.0 0.00 0.34 0.20 54 1017.3
20260501235921 44 360 2.0 5.0 0.00 0.34 0.20 53 1017.3
20260501235440 44 360 2.0 5.0 0.00 0.34 0.20 53 1017.3
20260501234939 45 360 2.0 6.0 0.00 0.34 0.20 53 1017.3
20260501234419 45 360 2.0 6.0 0.00 0.34 0.20 54 1017.2
20260501233939 45 360 2.0 5.0 0.00 0.34 0.20 54 1017.2
20260501233440 45 360 2.0 5.0 0.00 0.34 0.20 53 1017.2
20260501232920 46 360 3.0 6.0 0.00 0.34 0.20 52 1017.1
20260501232420 46 360 2.0 6.0 0.00 0.34 0.20 52 1017.0
20260501231922 46 360 2.0 5.0 0.00 0.34 0.20 52 1017.1
20260501231420 46 360 1.0 6.0 0.00 0.34 0.20 52 1017.0
20260501230921 46 360 2.0 6.0 0.00 0.34 0.20 52 1016.9
20260501230424 46 360 2.0 8.0 0.00 0.34 0.20 51 1016.9
20260501225926 46 360 2.0 8.0 0.00 0.34 0.20 52 1016.9
20260501225425 46 360 3.0 9.0 0.00 0.34 0.20 51 1017.0
20260501224928 47 360 4.0 9.0 0.00 0.34 0.20 52 1016.9
20260501224427 47 360 3.0 8.0 0.00 0.34 0.20 53 1016.9
20260501223947 47 360 3.0 9.0 0.00 0.34 0.20 51 1016.9
20260501223428 47 360 4.0 8.0 0.00 0.34 0.20 50 1016.9
20260501222949 48 360 2.0 8.0 0.00 0.34 0.20 52 1017.0
20260501222448 48 360 3.0 8.0 0.00 0.34 0.20 51 1017.0
20260501221927 48 360 2.0 6.0 0.00 0.34 0.20 51 1016.9
20260501221429 48 360 3.0 6.0 0.00 0.34 0.20 52 1016.8
20260501220930 47 360 2.0 6.0 0.00 0.34 0.20 52 1016.9
20260501220450 47 360 3.0 8.0 0.00 0.34 0.20 53 1016.8
20260501215931 47 360 2.0 6.0 0.00 0.34 0.20 54 1016.9
20260501215432 47 360 2.0 6.0 0.00 0.34 0.20 52 1016.9
20260501214932 48 360 3.0 6.0 0.00 0.34 0.20 53 1016.8
20260501214432 48 360 2.0 8.0 0.00 0.34 0.20 53 1016.8
20260501213931 49 360 3.0 8.0 0.00 0.34 0.20 52 1016.9
20260501213450 49 360 2.0 6.0 0.00 0.34 0.20 52 1016.8
20260501212925 49 360 1.0 9.0 0.00 0.34 0.20 51 1016.8
20260501212426 49 360 3.0 8.0 0.00 0.34 0.20 51 1016.8
20260501211928 49 360 4.0 9.0 0.00 0.34 0.20 49 1016.8
20260501211428 50 360 3.0 9.0 0.00 0.34 0.20 50 1016.8
20260501210929 50 360 2.0 5.0 0.00 0.34 0.20 52 1016.6
20260501210431 50 360 2.0 6.0 0.00 0.34 0.20 50 1016.5
20260501205931 50 360 3.0 6.0 0.00 0.34 0.20 49 1016.6
20260501205432 50 360 3.0 8.0 0.00 0.34 0.20 48 1016.7
20260501204933 51 360 3.0 8.0 0.00 0.34 0.20 48 1016.6
20260501204433 51 360 2.0 6.0 0.00 0.34 0.20 52 1016.5
20260501203933 51 360 3.0 6.0 0.00 0.34 0.20 52 1016.5
20260501203432 51 360 3.0 9.0 0.00 0.34 0.20 52 1016.4
20260501202934 51 360 3.0 9.0 0.00 0.34 0.20 52 1016.4
20260501202450 51 360 3.0 8.0 0.00 0.34 0.20 51 1016.4
20260501201915 51 360 3.0 8.0 0.00 0.34 0.20 52 1016.4
20260501201417 51 360 3.0 9.0 0.00 0.34 0.20 51 1016.4
20260501200918 52 360 3.0 9.0 0.00 0.34 0.20 49 1016.4
20260501200434 52 304 2.0 7.0 0.00 0.34 0.20 50 1016.5
20260501195955 52 339 2.0 6.0 0.00 0.34 0.20 52 1016.4
20260501195455 51 350 2.0 6.0 0.00 0.34 0.20 54 1016.4